CST,Max TemperatureF,Mean TemperatureF,Min TemperatureF,Max Dew PointF,MeanDew PointF,Min DewpointF,Max Humidity, Mean Humidity, Min Humidity, Max Sea Level PressureIn, Mean Sea Level PressureIn, Min Sea Level PressureIn, Max VisibilityMiles, Mean VisibilityMiles, Min VisibilityMiles, Max Wind SpeedMPH, Mean Wind SpeedMPH, Max Gust SpeedMPH,PrecipitationIn, CloudCover, Events, WindDirDegrees
2013-1-1,33,28,21,27,21,9,75,68,58,30.24,30.14,30.06,10,8,0,13,5,,0.00,7,,342
2013-1-2,30,22,15,10,8,3,68,55,40,30.31,30.26,30.22,10,10,10,7,3,,0.00,0,,325
2013-1-3,35,24,14,21,13,1,69,62,55,30.42,30.34,30.25,10,10,10,10,3,,0.00,0,,242
2013-1-4,37,27,17,21,15,9,69,62,48,30.48,30.41,30.38,10,10,7,7,2,,0.00,1,,254
2013-1-5,37,28,19,27,21,10,74,65,60,30.38,30.30,30.19,10,10,10,10,4,,0.00,4,,199
2013-1-6,37,29,21,27,22,12,75,64,55,30.42,30.25,30.12,10,10,8,17,9,21,0.00,4,,262
2013-1-7,39,28,17,25,16,9,69,63,52,30.49,30.37,30.25,10,8,4,9,2,,0.00,0,,143
2013-1-8,50,38,26,32,24,16,70,61,50,30.30,30.24,30.19,10,10,9,12,3,,0.00,2,,162
2013-1-9,53,46,39,41,35,28,76,68,58,30.48,30.38,30.23,10,10,7,12,3,,0.00,4,,19
2013-1-10,60,51,42,54,42,30,82,71,57,30.46,30.20,29.89,10,10,5,17,10,22,0.32,7,,102
2013-1-11,62,56,51,54,47,41,82,69,59,29.99,29.93,29.85,10,10,5,21,12,30,0.65,3,Thunderstorm,200
2013-1-12,66,60,53,57,53,45,82,74,67,29.98,29.87,29.70,10,9,2,22,9,37,1.98,6,Thunderstorm,179
2013-1-13,57,40,24,48,26,12,76,69,55,30.31,30.03,29.76,10,9,2,18,11,24,1.98,8,Thunderstorm,331
2013-1-14,26,24,21,14,11,9,64,58,54,30.45,30.39,30.31,10,10,10,13,9,,0.00,3,,6
2013-1-15,30,26,23,19,16,12,64,61,55,30.36,30.25,30.10,10,10,7,15,9,21,0.00,4,,23
2013-1-16,33,32,30,21,19,18,69,62,52,30.15,30.11,30.06,10,10,10,10,6,,0.00,3,,282
2013-1-17,44,36,28,30,21,16,69,58,49,30.49,30.26,30.13,10,10,10,16,5,24,0.00,1,,349
2013-1-18,44,34,23,27,20,12,69,55,46,30.56,30.43,30.26,10,10,10,14,7,20,0.00,0,,197
2013-1-19,55,45,35,34,27,21,57,51,44,30.26,30.14,30.00,10,10,10,29,16,36,0.00,0,,216
2013-1-20,42,34,26,30,17,10,65,48,35,30.32,30.23,30.09,10,10,10,14,9,18,0.00,0,,331
2013-1-21,28,22,17,12,5,-4,55,44,34,30.36,30.29,30.22,10,10,10,23,11,29,0.00,2,,316
2013-1-22,23,18,14,7,-2,-8,58,41,33,30.48,30.41,30.37,10,10,10,12,6,,0.00,4,,312
2013-1-23,42,28,15,19,11,1,64,51,35,30.40,30.27,30.14,10,10,10,12,3,,0.00,1,,229
2013-1-24,32,26,19,16,5,1,55,42,34,30.59,30.45,30.26,10,10,10,17,12,28,0.00,1,,52
2013-1-25,35,30,24,18,12,1,64,52,34,30.30,30.18,30.12,10,10,10,12,7,,0.00,5,,197
2013-1-26,35,29,23,18,14,10,69,54,38,30.39,30.33,30.23,10,10,10,9,5,,0.00,0,,11
2013-1-27,46,35,24,36,23,12,76,67,55,30.37,30.26,30.10,10,10,5,16,7,,0.06,5,,125
2013-1-28,59,52,46,50,44,36,77,70,58,30.11,30.07,30.03,10,10,9,20,13,25,0.00,7,,193
2013-1-29,68,60,53,55,51,45,77,69,64,30.02,29.79,29.46,10,10,8,28,15,41,0.15,5,,182
2013-1-30,57,44,30,46,35,16,77,67,55,29.88,29.55,29.38,10,10,8,29,13,37,1.59,8,Thunderstorm,255
2013-1-31,37,28,17,23,15,1,69,53,46,30.29,30.03,29.90,10,10,2,28,17,39,0.00,8,,277